Regional Weather Roundup
Issued by NWS

Home | Current Version | Previous Version | Graphics & Text | Print | Product List | Glossary On
Versions: 1 2 3 4 5 6 7 8 9 10 11 12 13 14 15 16 17 18 19 20 21 22 23 24 25 26 27 28
000
ASUS45 KCYS 290610
RWRWY

WYOMING REGIONAL WEATHER ROUNDUP
NATIONAL WEATHER SERVICE CHEYENNE WY
1200 AM MDT FRI JUL 29 2016

NOTE:  "FAIR" INDICATES FEW OR NO CLOUDS BELOW 12,000 FEET
WITH NO SIGNIFICANT WEATHER AND/OR OBSTRUCTIONS TO VISIBILITY.

WYZ001-290700-
YELLOWSTONE NATIONAL PARK

CITY           SKY/WX    TMP DP  RH WIND       PRES   REMARKS
LK YELLOWSTONE   N/A     48  38  68 NW3       30.38R
6HR MIN TEMP:  48; 6HR MAX TEMP:  76;

W YELLOWSTONE  NOT AVBL

$$
WYZ002>013-054>058-071-098>099-290700-
NORTHERN WYOMING

CITY           SKY/WX    TMP DP  RH WIND       PRES   REMARKS
JACKSON        FAIR      55  39  54 N6        30.24S
CODY           FAIR      63  48  59 CALM      30.22S
GREYBULL       MOCLDY    73  47  39 SE3       30.12S
6HR MIN TEMP:  73; 6HR MAX TEMP:  87;

WORLAND        MOCLDY    69  46  43 SE5       30.15R
6HR MIN TEMP:  67; 6HR MAX TEMP:  85;

SHERIDAN       FAIR      61  52  72 SW5       30.16F
6HR MIN TEMP:  60; 6HR MAX TEMP:  82;

BUFFALO        FAIR      60  52  74 SW7       30.24F
6HR MIN TEMP:  59; 6HR MAX TEMP:  78;

GILLETTE       FAIR      56  54  93 SW3       30.19S
6HR MIN TEMP:  56; 6HR MAX TEMP:  77;

HULETT         FAIR      61  55  82 CALM      30.20F
NEWCASTLE      FAIR      61  54  77 SE3       30.20S

$$
WYZ014>020-022>026-101>103-290700-
CENTRAL WYOMING

CITY           SKY/WX    TMP DP  RH WIND       PRES   REMARKS
BIG PINEY      CLOUDY    56  25  30 E5        30.30R
6HR MIN TEMP:  52; 6HR MAX TEMP:  86;

PINEDALE       FAIR      50  34  53 NW5       30.31S
DUBOIS         FAIR      57  43  58 SW5       30.34S
LANDER         FAIR      66  43  43 W7        30.24R
6HR MIN TEMP:  66; 6HR MAX TEMP:  83;

RIVERTON       FAIR      68  49  50 E6        30.25R
6HR MIN TEMP:  68; 6HR MAX TEMP:  83;

CASPER         FAIR      64  50  60 E6        30.24S
6HR MIN TEMP:  64; 6HR MAX TEMP:  82;

DOUGLAS          N/A    N/A N/A N/A MISG      30.24S

$$
WYZ021-027>030-104>119-290700-
SOUTHERN WYOMING

CITY           SKY/WX    TMP DP  RH WIND       PRES   REMARKS
EVANSTON       FAIR      71  28  20 SE5       30.30S
6HR MIN TEMP:  69; 6HR MAX TEMP:  87;

KEMMERER         N/A     61  23  23 N10       30.31S
FORT BRIDGER   FAIR      65  23  19 W7        30.31S
ROCK SPRINGS   FAIR      65  41  41 NE13      30.27S
6HR MIN TEMP:  65; 6HR MAX TEMP:  88;

DIXON          FAIR      62  36  37 E3        30.23R
RAWLINS        FAIR      64  49  57 NE14      30.28S
6HR MIN TEMP:  64; 6HR MAX TEMP:  83;

SARATOGA       FAIR      59  46  63 SE10      30.29R
LARAMIE        FAIR      58  52  80 SE10      30.33S
6HR MIN TEMP:  57; 6HR MAX TEMP:  72; 6HR PCP: TRACE;

CHEYENNE       FAIR      57  54  89 SW8       30.29F
6HR MIN TEMP:  57; 6HR MAX TEMP:  68;

TORRINGTON     FAIR      64  59  83 CALM      30.18S
6HR MIN TEMP:  62; 6HR MAX TEMP:  80;

PINE BLUFFS    FAIR      59  54  82 S5        30.24F

$$




USA.gov is the U.S. government's official web portal to all federal, state and local government web resources and services.